QPF
0.13 0.14 0.16 0.17 0.20 0.24 0.30 0.34 0.30 0.20 0.10 0.08 0.10 0.08 0.05 0.03 0.02 0.01 0.00 0.00 0.00 0.01 0.01 0.01 0.02 0.03 0.05 0.08 0.09 0.09 0.07 0.04 0.02 0.01 0.01 0.01 0.01 0.01
0.12 0.13 0.15 0.17 0.17 0.17 0.20 0.24 0.24 0.18 0.10 0.08 0.09 0.06 0.05 0.03 0.03 0.01 0.00 0.00 0.00 0.00 0.01 0.01 0.02 0.03 0.03 0.04 0.04 0.04 0.03 0.01 0.01 0.00 0.00 0.00 0.00 0.00
0.07 0.09 0.11 0.11 0.10 0.09 0.09 0.09 0.10 0.11 0.06 0.07 0.09 0.07 0.06 0.05 0.04 0.02 0.01 0.00 0.00 0.00 0.00 0.00 0.01 0.01 0.01 0.01 0.01 0.01 0.01 0.00 0.00 0.00 0.00 0.00 0.00 0.00
0.03 0.04 0.04 0.04 0.04 0.04 0.04 0.03 0.04 0.05 0.05 0.06 0.09 0.08 0.05 0.04 0.04 0.03 0.02 0.01 0.00 0.00 0.00 0.00 0.00 0.00 0.00 0.00 0.00 0.00 0.00 0.00 0.00 0.00 0.00 0.00 0.00 0.00
0.02 0.02 0.02 0.01 0.01 0.01 0.01 0.01 0.01 0.03 0.05 0.06 0.09 0.11 0.07 0.05 0.04 0.04 0.03 0.02 0.01 0.01 0.00 0.00 0.00 0.00 0.00 0.00 0.00 0.00 0.00 0.00 0.00 0.00 0.00 0.00 0.00 0.00
0.01 0.01 0.00 0.00 0.00 0.00 0.00 0.00 0.00 0.01 0.04 0.06 0.11 0.15 0.12 0.08 0.06 0.05 0.04 0.04 0.03 0.02 0.02 0.01 0.00 0.00 0.00 0.00 0.00 0.00 0.00 0.00 0.00 0.00 0.00 0.00 0.00 0.00
0.01 0.00 0.00 0.00 0.00 0.00 0.00 0.00 0.00 0.00 0.02 0.05 0.10 0.17 0.17 0.14 0.10 0.09 0.08 0.07 0.06 0.04 0.04 0.03 0.02 0.01 0.00 0.00 0.00 0.00 0.00 0.00 0.00 0.00 0.00 0.00 0.00 0.00
0.00 0.00 0.00 0.00 0.00 0.00 0.00 0.00 0.00 0.00 0.01 0.03 0.09 0.16 0.22 0.23 0.22 0.19 0.15 0.12 0.08 0.05 0.04 0.06 0.06 0.04 0.03 0.02 0.01 0.00 0.00 0.00 0.00 0.00 0.00 0.00 0.00 0.01
0.00 0.00 0.00 0.00 0.00 0.00 0.00 0.00 0.00 0.00 0.00 0.03 0.05 0.09 0.16 0.22 0.27 0.27 0.22 0.16 0.13 0.10 0.08 0.07 0.08 0.08 0.07 0.05 0.04 0.02 0.01 0.01 0.01 0.01 0.01 0.01 0.01 0.01
0.00 0.00 0.00 0.00 0.00 0.00 0.00 0.00 0.00 0.00 0.00 0.01 0.02 0.03 0.05 0.10 0.17 0.23 0.24 0.20 0.15 0.10 0.07 0.06 0.06 0.07 0.07 0.07 0.06 0.04 0.02 0.02 0.02 0.03 0.04 0.04 0.04 0.04
0.00 0.00 0.00 0.00 0.00 0.00 0.00 0.00 0.00 0.00 0.00 0.00 0.00 0.01 0.01 0.03 0.06 0.10 0.12 0.13 0.11 0.08 0.06 0.05 0.06 0.07 0.08 0.09 0.09 0.07 0.05 0.03 0.02 0.02 0.03 0.03 0.03 0.02
0.00 0.00 0.00 0.00 0.00 0.00 0.00 0.00 0.00 0.00 0.00 0.00 0.00 0.00 0.00 0.00 0.01 0.03 0.05 0.07 0.08 0.08 0.07 0.06 0.07 0.10 0.14 0.17 0.18 0.19 0.14 0.09 0.05 0.03 0.02 0.02 0.02 0.01
0.00 0.00 0.00 0.00 0.00 0.00 0.00 0.00 0.00 0.00 0.00 0.00 0.01 0.01 0.00 0.00 0.00 0.00 0.00 0.01 0.02 0.03 0.04 0.04 0.06 0.10 0.13 0.22 0.29 0.35 0.31 0.22 0.14 0.08 0.04 0.02 0.01 0.01
0.00 0.00 0.00 0.00 0.00 0.00 0.00 0.00 0.00 0.00 0.00 0.00 0.00 0.01 0.01 0.01 0.00 0.00 0.00 0.00 0.00 0.00 0.00 0.01 0.02 0.03 0.07 0.12 0.21 0.29 0.34 0.31 0.27 0.21 0.12 0.06 0.03 0.02
0.00 0.00 0.00 0.00 0.00 0.00 0.00 0.00 0.00 0.00 0.00 0.00 0.00 0.01 0.01 0.00 0.00 0.00 0.00 0.00 0.00 0.00 0.00 0.00 0.00 0.01 0.03 0.06 0.10 0.12 0.15 0.17 0.18 0.18 0.14 0.09 0.06 0.04
0.00 0.00 0.00 0.00 0.00 0.00 0.00 0.00 0.00 0.00 0.00 0.00 0.01 0.01 0.01 0.01 0.00 0.00 0.00 0.00 0.00 0.00 0.00 0.00 0.00 0.00 0.01 0.04 0.06 0.07 0.06 0.07 0.07 0.08 0.08 0.09 0.08 0.05
0.00 0.00 0.00 0.00 0.00 0.00 0.00 0.00 0.00 0.00 0.00 0.00 0.00 0.01 0.01 0.01 0.01 0.01 0.01 0.01 0.00 0.00 0.00 0.00 0.00 0.00 0.00 0.01 0.03 0.04 0.03 0.03 0.03 0.04 0.06 0.06 0.05 0.02
0.00 0.00 0.00 0.00 0.00 0.00 0.00 0.00 0.00 0.01 0.01 0.01 0.00 0.01 0.01 0.01 0.01 0.02 0.02 0.01 0.01 0.01 0.01 0.01 0.01 0.00 0.00 0.00 0.01 0.01 0.01 0.01 0.01 0.02 0.03 0.02 0.01 0.01
0.00 0.00 0.00 0.00 0.00 0.00 0.00 0.00 0.00 0.01 0.01 0.00 0.01 0.01 0.01 0.01 0.02 0.02 0.02 0.02 0.03 0.02 0.03 0.03 0.02 0.01 0.01 0.00 0.00 0.00 0.00 0.00 0.00 0.01 0.01 0.01 0.00 0.00
0.00 0.00 0.00 0.00 0.00 0.00 0.00 0.00 0.00 0.00 0.00 0.00 0.00 0.01 0.02 0.02 0.02 0.02 0.03 0.03 0.04 0.05 0.04 0.05 0.05 0.03 0.02 0.01 0.01 0.01 0.00 0.00 0.00 0.00 0.00 0.00 0.00 0.00
0.00 0.00 0.00 0.00 0.00 0.00 0.00 0.00 0.00 0.00 0.00 0.00 0.00 0.01 0.02 0.03 0.03 0.04 0.04 0.04 0.03 0.03 0.04 0.05 0.05 0.05 0.04 0.04 0.03 0.02 0.01 0.01 0.00 0.00 0.00 0.00 0.00 0.00
0.00 0.00 0.00 0.00 0.00 0.00 0.00 0.00 0.00 0.00 0.00 0.00 0.00 0.00 0.01 0.01 0.02 0.03 0.04 0.05 0.05 0.05 0.05 0.06 0.06 0.08 0.08 0.09 0.08 0.05 0.03 0.02 0.01 0.00 0.00 0.00 0.00 0.00
0.00 0.00 0.00 0.00 0.00 0.00 0.00 0.00 0.00 0.00 0.00 0.00 0.00 0.00 0.00 0.00 0.00 0.01 0.02 0.03 0.03 0.03 0.04 0.05 0.06 0.08 0.11 0.13 0.13 0.10 0.06 0.04 0.03 0.02 0.01 0.00 0.00 0.00
MSLP
1012.11 1012.14 1012.20 1012.25 1012.25 1012.17 1012.02 1011.77 1011.47 1011.12 1010.78 1010.46 1010.19 1009.97 1009.80 1009.66 1009.54 1009.41 1009.26 1009.11 1008.95 1008.84 1008.79 1008.86 1009.07 1009.44 1009.98 1010.67 1011.49 1012.37 1013.29 1014.18 1015.00 1015.72 1016.32 1016.80 1017.16 1017.43
1011.98 1011.97 1011.99 1012.00 1011.98 1011.90 1011.76 1011.54 1011.28 1010.99 1010.70 1010.43 1010.20 1010.01 1009.87 1009.76 1009.66 1009.57 1009.47 1009.38 1009.30 1009.26 1009.29 1009.42 1009.67 1010.05 1010.56 1011.19 1011.91 1012.68 1013.47 1014.23 1014.93 1015.55 1016.08 1016.50 1016.82 1017.07
1011.94 1011.90 1011.88 1011.85 1011.81 1011.71 1011.56 1011.37 1011.13 1010.87 1010.62 1010.38 1010.18 1010.03 1009.91 1009.83 1009.77 1009.73 1009.70 1009.68 1009.69 1009.74 1009.86 1010.06 1010.35 1010.73 1011.20 1011.76 1012.36 1013.00 1013.64 1014.26 1014.83 1015.34 1015.77 1016.13 1016.42 1016.65
1012.05 1011.98 1011.92 1011.86 1011.78 1011.67 1011.50 1011.30 1011.06 1010.81 1010.57 1010.35 1010.16 1010.01 1009.91 1009.85 1009.82 1009.82 1009.85 1009.92 1010.02 1010.17 1010.37 1010.64 1010.96 1011.34 1011.78 1012.25 1012.74 1013.24 1013.73 1014.20 1014.64 1015.03 1015.39 1015.69 1015.95 1016.16
1012.29 1012.21 1012.14 1012.06 1011.94 1011.80 1011.60 1011.37 1011.11 1010.84 1010.58 1010.33 1010.12 1009.96 1009.84 1009.78 1009.77 1009.81 1009.89 1010.03 1010.21 1010.45 1010.73 1011.05 1011.40 1011.78 1012.17 1012.56 1012.94 1013.31 1013.67 1014.00 1014.32 1014.62 1014.90 1015.16 1015.40 1015.61
1012.67 1012.59 1012.51 1012.41 1012.27 1012.09 1011.85 1011.58 1011.27 1010.95 1010.63 1010.33 1010.07 1009.86 1009.71 1009.63 1009.61 1009.67 1009.79 1009.98 1010.22 1010.52 1010.86 1011.22 1011.59 1011.96 1012.31 1012.63 1012.92 1013.17 1013.41 1013.63 1013.86 1014.08 1014.31 1014.54 1014.77 1014.99
1013.14 1013.07 1012.98 1012.87 1012.70 1012.48 1012.21 1011.88 1011.51 1011.12 1010.73 1010.35 1010.02 1009.75 1009.54 1009.42 1009.37 1009.42 1009.56 1009.77 1010.06 1010.39 1010.77 1011.15 1011.52 1011.87 1012.18 1012.43 1012.64 1012.82 1012.96 1013.11 1013.26 1013.43 1013.63 1013.85 1014.09 1014.32
1013.62 1013.56 1013.48 1013.35 1013.17 1012.91 1012.59 1012.21 1011.78 1011.32 1010.85 1010.40 1009.99 1009.64 1009.37 1009.19 1009.11 1009.13 1009.26 1009.47 1009.76 1010.11 1010.49 1010.87 1011.23 1011.55 1011.81 1012.02 1012.16 1012.27 1012.36 1012.45 1012.56 1012.71 1012.89 1013.12 1013.36 1013.62
1014.06 1014.00 1013.92 1013.79 1013.59 1013.31 1012.96 1012.53 1012.05 1011.53 1011.00 1010.48 1010.00 1009.59 1009.26 1009.02 1008.90 1008.88 1008.98 1009.17 1009.44 1009.76 1010.12 1010.47 1010.80 1011.08 1011.30 1011.46 1011.56 1011.62 1011.68 1011.74 1011.83 1011.96 1012.15 1012.38 1012.64 1012.92
1014.41 1014.35 1014.27 1014.13 1013.92 1013.63 1013.26 1012.81 1012.31 1011.76 1011.19 1010.63 1010.11 1009.65 1009.27 1008.99 1008.82 1008.76 1008.81 1008.96 1009.18 1009.46 1009.76 1010.06 1010.34 1010.57 1010.74 1010.85 1010.92 1010.96 1010.99 1011.04 1011.13 1011.26 1011.46 1011.70 1011.98 1012.26
1014.67 1014.60 1014.51 1014.36 1014.15 1013.86 1013.50 1013.05 1012.55 1012.00 1011.43 1010.87 1010.33 1009.85 1009.46 1009.15 1008.94 1008.84 1008.84 1008.92 1009.08 1009.29 1009.52 1009.75 1009.95 1010.12 1010.24 1010.31 1010.35 1010.37 1010.39 1010.44 1010.53 1010.67 1010.87 1011.12 1011.40 1011.69
1014.88 1014.79 1014.68 1014.53 1014.32 1014.04 1013.69 1013.27 1012.80 1012.28 1011.74 1011.20 1010.69 1010.22 1009.82 1009.50 1009.27 1009.13 1009.07 1009.09 1009.17 1009.29 1009.43 1009.57 1009.70 1009.80 1009.86 1009.89 1009.90 1009.91 1009.93 1009.98 1010.07 1010.22 1010.42 1010.67 1010.95 1011.23
1015.08 1014.96 1014.84 1014.68 1014.47 1014.21 1013.89 1013.51 1013.08 1012.61 1012.12 1011.64 1011.16 1010.73 1010.35 1010.03 1009.78 1009.60 1009.49 1009.44 1009.43 1009.46 1009.51 1009.56 1009.60 1009.63 1009.64 1009.63 1009.61 1009.61 1009.62 1009.68 1009.78 1009.93 1010.13 1010.37 1010.64 1010.92
1015.32 1015.18 1015.03 1014.87 1014.66 1014.42 1014.13 1013.79 1013.41 1013.00 1012.58 1012.15 1011.73 1011.34 1010.99 1010.68 1010.42 1010.20 1010.04 1009.91 1009.83 1009.76 1009.72 1009.68 1009.64 1009.59 1009.55 1009.50 1009.46 1009.45 1009.47 1009.53 1009.63 1009.79 1009.99 1010.22 1010.48 1010.74
1015.63 1015.47 1015.30 1015.13 1014.92 1014.69 1014.42 1014.12 1013.80 1013.45 1013.08 1012.71 1012.35 1012.00 1011.67 1011.37 1011.10 1010.85 1010.63 1010.44 1010.28 1010.13 1009.99 1009.87 1009.76 1009.65 1009.56 1009.48 1009.43 1009.41 1009.43 1009.49 1009.61 1009.77 1009.96 1010.19 1010.44 1010.69
1016.00 1015.83 1015.65 1015.46 1015.25 1015.03 1014.78 1014.51 1014.22 1013.92 1013.60 1013.28 1012.96 1012.65 1012.34 1012.05 1011.76 1011.48 1011.22 1010.97 1010.73 1010.51 1010.30 1010.10 1009.92 1009.77 1009.63 1009.53 1009.47 1009.44 1009.47 1009.54 1009.66 1009.82 1010.02 1010.25 1010.49 1010.73
1016.40 1016.22 1016.03 1015.83 1015.63 1015.40 1015.16 1014.91 1014.65 1014.39 1014.11 1013.83 1013.55 1013.26 1012.96 1012.67 1012.37 1012.06 1011.76 1011.45 1011.15 1010.87 1010.59 1010.34 1010.11 1009.91 1009.75 1009.63 1009.56 1009.53 1009.55 1009.63 1009.75 1009.92 1010.12 1010.35 1010.59 1010.82
1016.75 1016.58 1016.40 1016.20 1015.99 1015.77 1015.54 1015.31 1015.08 1014.84 1014.59 1014.34 1014.08 1013.81 1013.53 1013.23 1012.91 1012.58 1012.24 1011.90 1011.55 1011.22 1010.90 1010.60 1010.33 1010.10 1009.92 1009.78 1009.69 1009.65 1009.67 1009.74 1009.86 1010.02 1010.22 1010.44 1010.68 1010.91
1016.99 1016.84 1016.67 1016.48 1016.28 1016.08 1015.87 1015.66 1015.46 1015.25 1015.03 1014.81 1014.58 1014.32 1014.05 1013.75 1013.42 1013.08 1012.71 1012.34 1011.96 1011.59 1011.23 1010.91 1010.61 1010.36 1010.14 1009.99 1009.88 1009.83 1009.83 1009.88 1009.98 1010.12 1010.30 1010.51 1010.73 1010.95
1017.06 1016.94 1016.80 1016.64 1016.47 1016.30 1016.12 1015.95 1015.78 1015.61 1015.43 1015.24 1015.04 1014.81 1014.54 1014.25 1013.93 1013.57 1013.19 1012.80 1012.41 1012.02 1011.64 1011.30 1010.98 1010.70 1010.47 1010.29 1010.15 1010.07 1010.04 1010.05 1010.12 1010.22 1010.37 1010.54 1010.74 1010.94
1016.93 1016.86 1016.76 1016.64 1016.52 1016.39 1016.27 1016.14 1016.03 1015.91 1015.78 1015.64 1015.47 1015.27 1015.03 1014.75 1014.44 1014.09 1013.71 1013.32 1012.92 1012.52 1012.14 1011.79 1011.46 1011.17 1010.92 1010.70 1010.53 1010.41 1010.33 1010.29 1010.29 1010.34 1010.43 1010.55 1010.70 1010.86
1016.62 1016.59 1016.55 1016.49 1016.43 1016.36 1016.30 1016.25 1016.19 1016.14 1016.07 1015.98 1015.86 1015.70 1015.49 1015.24 1014.94 1014.61 1014.25 1013.86 1013.48 1013.09 1012.72 1012.37 1012.05 1011.75 1011.48 1011.24 1011.03 1010.85 1010.71 1010.60 1010.54 1010.51 1010.52 1010.57 1010.65 1010.75
1016.14 1016.18 1016.20 1016.20 1016.21 1016.21 1016.23 1016.25 1016.27 1016.28 1016.28 1016.25 1016.18 1016.06 1015.89 1015.67 1015.41 1015.10 1014.76 1014.41 1014.04 1013.69 1013.34 1013.01 1012.70 1012.40 1012.13 1011.87 1011.62 1011.40 1011.19 1011.01 1010.86 1010.74 1010.66 1010.62 1010.62 1010.65
Thickness
5686 5686 5686 5688 5689 5689 5689 5688 5684 5683 5687 5695 5700 5704 5705 5704 5705 5705 5706 5707 5707 5709 5711 5712 5713 5710 5704 5697 5689 5680 5673 5666 5660 5656 5651 5647 5643 5640
5679 5678 5679 5679 5680 5681 5682 5682 5682 5679 5679 5687 5692 5696 5697 5697 5697 5698 5698 5698 5698 5699 5700 5700 5699 5696 5691 5685 5678 5671 5665 5660 5655 5652 5648 5645 5642 5640
5671 5671 5670 5671 5671 5672 5673 5675 5676 5675 5675 5681 5687 5690 5690 5691 5691 5690 5690 5690 5689 5689 5689 5688 5687 5684 5680 5675 5670 5664 5659 5654 5651 5648 5646 5644 5643 5641
5663 5662 5661 5662 5661 5662 5664 5665 5667 5670 5671 5674 5679 5683 5685 5686 5685 5684 5684 5683 5681 5680 5679 5678 5677 5674 5671 5667 5663 5658 5654 5651 5648 5646 5645 5644 5644 5643
5655 5654 5653 5653 5652 5654 5656 5657 5660 5664 5667 5670 5674 5679 5680 5681 5679 5678 5677 5676 5675 5673 5671 5670 5668 5665 5663 5660 5657 5654 5651 5649 5647 5646 5645 5645 5645 5646
5646 5645 5644 5644 5644 5646 5649 5650 5653 5657 5661 5665 5669 5672 5675 5677 5675 5672 5669 5670 5669 5669 5666 5664 5662 5660 5657 5654 5652 5651 5649 5648 5647 5647 5647 5647 5647 5648
5634 5634 5634 5635 5637 5638 5641 5642 5644 5647 5652 5657 5661 5665 5667 5669 5669 5669 5666 5664 5663 5664 5661 5659 5657 5655 5653 5651 5650 5649 5649 5649 5649 5648 5648 5649 5649 5650
5619 5620 5623 5624 5627 5630 5632 5634 5636 5637 5641 5646 5651 5654 5658 5662 5664 5664 5662 5658 5656 5659 5657 5655 5655 5653 5652 5651 5651 5650 5649 5649 5649 5649 5650 5650 5651 5651
5604 5605 5608 5610 5612 5616 5619 5623 5626 5629 5631 5634 5638 5642 5647 5653 5656 5657 5657 5656 5654 5654 5653 5650 5651 5650 5651 5651 5651 5650 5649 5648 5648 5649 5649 5650 5651 5651
5590 5590 5591 5592 5596 5599 5603 5606 5610 5615 5619 5623 5626 5630 5636 5642 5647 5650 5651 5649 5647 5647 5647 5644 5645 5646 5647 5647 5647 5647 5646 5646 5646 5646 5647 5648 5649 5650
5577 5577 5577 5578 5582 5585 5588 5590 5595 5600 5607 5612 5616 5620 5625 5630 5635 5638 5639 5638 5636 5637 5638 5637 5638 5639 5640 5641 5641 5641 5641 5640 5640 5641 5643 5644 5645 5646
5566 5566 5566 5566 5568 5571 5572 5574 5577 5582 5589 5596 5601 5606 5610 5615 5620 5622 5625 5625 5626 5626 5629 5629 5630 5631 5632 5635 5636 5635 5634 5634 5634 5635 5637 5639 5640 5642
5556 5554 5555 5556 5557 5559 5560 5561 5563 5568 5573 5578 5582 5587 5592 5597 5603 5607 5610 5612 5613 5615 5618 5620 5621 5622 5624 5626 5629 5630 5629 5629 5629 5629 5631 5633 5634 5637
5544 5543 5544 5546 5547 5549 5550 5551 5554 5558 5560 5562 5565 5568 5573 5579 5585 5591 5596 5599 5602 5604 5608 5609 5610 5612 5614 5616 5619 5621 5623 5623 5624 5624 5625 5626 5627 5630
5533 5535 5536 5538 5539 5539 5540 5541 5542 5543 5545 5546 5548 5551 5556 5562 5569 5576 5582 5586 5590 5593 5597 5599 5600 5602 5604 5607 5609 5611 5613 5615 5617 5618 5618 5618 5620 5622
5524 5525 5527 5528 5528 5528 5528 5528 5529 5529 5530 5531 5533 5537 5543 5548 5551 5556 5562 5567 5572 5578 5584 5587 5589 5592 5594 5597 5599 5601 5603 5606 5608 5610 5610 5610 5611 5611
5513 5514 5514 5514 5514 5514 5514 5514 5515 5516 5517 5519 5521 5524 5528 5532 5535 5540 5544 5549 5553 5558 5565 5572 5576 5580 5584 5587 5587 5590 5592 5594 5598 5600 5600 5599 5599 5601
5504 5500 5500 5500 5500 5499 5499 5500 5501 5502 5503 5505 5507 5511 5514 5517 5521 5525 5529 5532 5537 5542 5548 5553 5559 5564 5569 5573 5577 5578 5580 5582 5586 5589 5589 5589 5588 5589
5496 5493 5491 5489 5489 5488 5486 5486 5486 5487 5489 5491 5493 5495 5499 5503 5507 5512 5515 5519 5523 5527 5532 5537 5541 5545 5549 5554 5562 5567 5568 5570 5573 5575 5577 5579 5579 5580
5490 5487 5485 5482 5480 5477 5475 5473 5473 5473 5474 5475 5477 5479 5483 5487 5491 5496 5501 5505 5509 5514 5519 5524 5527 5530 5533 5538 5545 5552 5557 5559 5561 5562 5564 5564 5565 5568
5486 5483 5480 5476 5472 5468 5465 5462 5460 5459 5458 5459 5460 5462 5465 5469 5473 5478 5483 5488 5494 5499 5504 5509 5514 5520 5525 5529 5533 5537 5542 5546 5550 5552 5553 5553 5554 5555
5482 5478 5475 5471 5466 5461 5457 5453 5450 5447 5445 5444 5444 5445 5448 5451 5455 5460 5466 5471 5477 5482 5489 5496 5503 5510 5514 5517 5520 5521 5526 5531 5536 5540 5544 5547 5547 5547
5480 5475 5470 5465 5460 5455 5450 5446 5442 5437 5434 5432 5431 5431 5432 5435 5439 5443 5449 5455 5461 5467 5473 5480 5487 5494 5500 5504 5508 5510 5514 5519 5522 5526 5531 5536 5540 5544